{"data":{"norad_id":51630,"intl_designator":"2022-012J","name":"ONEWEB-0431","alt_names":[],"object_type":"PAYLOAD","status":"ACTIVE","operator":null,"country":"UK","launch_date":"2022-02-10","launch_site_code":"FRGUI","launch_vehicle":null,"mission":null,"orbit_class":"UNKNOWN","rcs_meters":null,"size_class":null,"mass_kg":null,"dimensions":null,"purposes":["comms"],"wikipedia_slug":null,"has_3d_model":false,"image_url":null,"decayed_at":null,"tle_current":{"epoch":"2026-09-20T02:56:13.544736Z","epoch_age_seconds":58741,"freshness":"FRESH","line1":"1 51630U 22012J   26263.12237899 -.00000667  00000+0 -19485-2 0  9991","line2":"2 51630  87.8911  17.3682 0001263  91.7051 268.4221 13.10373111221778","mean_motion":13.10373111,"eccentricity":0.0001263,"inclination_deg":87.8911,"raan_deg":17.3682,"arg_perigee_deg":91.7051,"mean_anomaly_deg":268.4221,"bstar":-0.0019485,"rev_number":22177,"period_min":109.89236484722,"perigee_km":1220.756152588,"apogee_km":1222.6758754594,"semimajor_km":7599.8530140237,"source":"CELESTRAK","updated_at":"2026-09-20T09:00:44.709259Z"}}}